Regional Weather Roundup
Issued by NWS Glasgow, MT

Home | Current Version | Previous Version | Text Only | Print | Product List | Glossary On
Versions: 1 2 3 4 5 6 7 8 9 10 11 12 13 14 15 16 17 18 19 20 21 22 23 24 25 26 27
000
ASUS45 KGGW 192115
RWRGGW
HOURLY WEATHER ROUNDUP FOR NORTHEAST MONTANA
NATIONAL WEATHER SERVICE GLASGOW MONTANA
300 PM MDT SAT APR 19 2014

NOTE: "FAIR" INDICATES FEW OR NO CLOUDS BELOW 12,000 FEET WITH NO
SIGNIFICANT WEATHER AND/OR OBSTRUCTIONS TO VISISBILITY.

NORTHEAST MONTANA


CITY           SKY/WX    TMP DP  RH WIND       PRES   REMARKS
GLASGOW        MOSUNNY   59  33  37 W15       29.91F
PLENTYWOOD       N/A     53  32  44 W12         N/A
WOLF POINT     MOSUNNY   60  34  37 W18       29.92F
JORDAN           N/A     61  21  21 W9G20     29.91F
WINNETT          N/A     62  21  20 S3          N/A
SIDNEY         MOSUNNY   59  36  41 W14G20    29.94F
GLENDIVE       SUNNY     63  30  29 W13G20    29.95S
SCOBEY           N/A     54  32  43 SW9       29.89S

FORT PECK REPORTS


CITY           SKY/WX    TMP DP  RH WIND       PRES   REMARKS
FORT PECK        N/A     57  33  40 W10         N/A
THE PINES        N/A     58  29  33 S6          N/A

SOUTHEAST MONTANA


CITY           SKY/WX    TMP DP  RH WIND       PRES   REMARKS
BILLINGS       MOSUNNY   62  17  17 VRB6      29.93F
MILES CITY     SUNNY     61  24  24 VRB6G17   29.95F
BAKER          MOSUNNY   60  27  28 W15G22    29.97F
LIVINGSTON     SUNNY     64  18  17 SW14G20   29.90F

CENTRAL MONTANA


CITY           SKY/WX    TMP DP  RH WIND       PRES   REMARKS
HAVRE          SUNNY     60  20  21 SW9G23    29.87F
LEWISTOWN      MOSUNNY   58   7  13 W7G16     29.90F
GREAT FALLS    SUNNY     62  14  15 SW18      29.86F
CUT BANK       MOSUNNY   57  11  16 SW24G31   29.84S
HELENA         SUNNY     62  11  13 E6        29.88F
BUTTE          MOSUNNY   59  13  16 W13       29.93F
BOZEMAN        SUNNY     62   8  12 VRB3      29.92F

WESTERN MONTANA


CITY           SKY/WX    TMP DP  RH WIND       PRES   REMARKS
MISSOULA       MOSUNNY   63  18  17 VRB3      29.87F
KALISPELL      NOT AVBL

NORTH DAKOTA


CITY           SKY/WX    TMP DP  RH WIND       PRES   REMARKS
WILLISTON      MOSUNNY   57  34  41 W16G22    29.92F
DICKINSON      MOSUNNY   61  31  32 W20G25    29.94R
MINOT          CLOUDY    52  33  48 W21       29.91R
BISMARCK       SUNNY     66  32  28 W21G30    29.93R

SOUTHERN SASKATCHEWAN


CITY           SKY/WX    TMP DP  RH WIND       PRES   REMARKS
REGINA         CLOUDY    39  32  75 NW20      29.89R
ESTEVAN        PTSUNNY   46  36  66 W17G23    29.91R
SWIFT CURRENT  PTSUNNY   43  34  70 W14G21    29.87S




USA.gov is the U.S. government's official web portal to all federal, state and local government web resources and services.